McAlester, OK

1:30 PM CST on November 20, 2019 (GMT -0600)
McAlester Regional

Weather History for KMLC - August, 2019

Change the Weather History Date:

Friday, August 23, 2019

  Actual Average Record
Temperature  
Mean Temperature 74 °F -  
Max Temperature 78 °F 93 °F 103 °F (1963)
Min Temperature 69 °F 70 °F 56 °F (1961)
Cooling Degree Days 8    
Growing Degree Days 24 (Base 50)    
Moisture  
Dew Point 70 °F    
Average Humidity 90    
Maximum Humidity 100    
Minimum Humidity 79    
Precipitation  
Precipitation 1.19 in - - ()
Sea Level Pressure  
Sea Level Pressure 29.98 in    
Wind  
Wind Speed 8 mph (ENE)    
Max Wind Speed 18 mph    
Max Gust Speed 25 mph    
Visibility 8 miles    
Events Rain , Thunderstorm    
Averages and records for this station are not official NWS values.
T = Trace of Precipitation, MM = Missing Value Source: NWS Daily Summary

Daily Weather History Graph

Daily Weather History Graph

Search for Another Location

Airport or City:

Astronomy

Aug. 23, 2019 Rise Set
Actual Time 6:49 AM CDT 8:01 PM CDT
Civil Twilight 6:22 AM CDT 8:28 PM CDT
Nautical Twilight 5:51 AM CDT 8:59 PM CDT
Astronomical Twilight 5:18 AM CDT 9:31 PM CDT
Moon 12:10 AM CDT (8/23) 2:09 PM CDT (8/23)
Length of Visible Light 14h 05m
Length of Day
13h 12m
Waning Gibbous, 49% of the Moon is Illuminated
Aug 23
Waning Gibbous
Aug 30
New
Sep 5
First Quarter
Sep 13
Full
Sep 21
Last Quarter

Hourly Weather History & Observations

Time (CDT) Temp. Dew Point Humidity Pressure Visibility Wind Dir Wind Speed Gust Speed Precip Events Conditions
12:53 AM 78.1 °F 72.0 °F 81% 29.89 in 10.0 mi East 9.2 mph - N/A   Clear
1:53 AM 75.9 °F 70.0 °F 82% 29.89 in 10.0 mi East 8.1 mph - N/A   Clear
2:53 AM 75.9 °F 69.1 °F 79% 29.88 in 10.0 mi East 5.8 mph - N/A   Overcast
3:53 AM 75.0 °F 68.0 °F 79% 29.88 in 10.0 mi East 8.1 mph - N/A   Overcast
4:42 AM 75.0 °F 69.1 °F 82% 29.97 in 10.0 mi North 9.2 mph - N/A   Overcast
4:53 AM 73.9 °F 70.0 °F 87% 29.94 in 10.0 mi North 11.5 mph - N/A   Overcast
5:05 AM 73.0 °F 70.0 °F 90% 29.98 in 4.0 mi NNE 12.7 mph - 0.07 in Rain , Thunderstorm Heavy Rain
5:19 AM 72.0 °F 70.0 °F 93% 29.99 in 5.0 mi North 17.3 mph 21.9 mph 0.15 in Rain Light Rain
5:23 AM 72.0 °F 70.0 °F 93% 29.99 in 2.5 mi North 18.4 mph 25.3 mph 0.20 in Rain Heavy Rain
5:30 AM 72.0 °F 69.1 °F 91% 29.98 in 4.0 mi NNE 12.7 mph 25.3 mph 0.21 in Rain , Thunderstorm Light Rain
5:53 AM 71.1 °F 69.1 °F 93% 29.94 in 10.0 mi Variable 6.9 mph 23.0 mph 0.21 in   Overcast
6:53 AM 71.1 °F 69.1 °F 93% 29.95 in 10.0 mi ESE 9.2 mph - N/A   Overcast
7:18 AM 71.1 °F 69.1 °F 93% 30.01 in 10.0 mi NNW 9.2 mph - N/A Thunderstorm Overcast
7:26 AM 72.0 °F 70.0 °F 93% 30.01 in 10.0 mi North 15.0 mph 19.6 mph N/A Thunderstorm Thunderstorm
7:36 AM 73.0 °F 69.1 °F 87% 30.00 in 7.0 mi NNE 12.7 mph 25.3 mph 0.09 in Rain , Thunderstorm Light Thunderstorms and Rain
7:42 AM 73.0 °F 68.0 °F 84% 30.02 in 1.8 mi NNE 10.4 mph 25.3 mph 0.29 in Rain , Thunderstorm Heavy Thunderstorms and Rain
7:46 AM 71.1 °F 69.1 °F 93% 30.01 in 0.8 mi NE 10.4 mph 17.3 mph 0.62 in Rain , Thunderstorm Heavy Thunderstorms and Rain
7:59 AM 70.0 °F 69.1 °F 97% 29.99 in 1.0 mi East 10.4 mph 25.3 mph 0.19 in Rain , Thunderstorm Heavy Thunderstorms and Rain
8:17 AM 70.0 °F 69.1 °F 97% 30.00 in 2.0 mi East 9.2 mph 17.3 mph 0.48 in Rain , Thunderstorm Light Thunderstorms and Rain
8:26 AM 71.1 °F 69.1 °F 93% 30.00 in 3.0 mi Variable 3.5 mph - 0.52 in Rain , Thunderstorm Heavy Thunderstorms and Rain
8:36 AM 71.1 °F 69.1 °F 93% 30.01 in 8.0 mi Calm Calm - 0.53 in Rain , Thunderstorm Thunderstorms and Rain
8:41 AM 71.1 °F 69.1 °F 93% 30.01 in 7.0 mi Calm Calm - 0.54 in Rain , Thunderstorm Rain
8:53 AM 71.1 °F 69.1 °F 93% 30.00 in 7.0 mi Calm Calm - 0.55 in Rain , Thunderstorm Rain
9:12 AM 71.1 °F 69.1 °F 93% 30.02 in 10.0 mi North - - 0.02 in Rain Light Rain
9:20 AM 71.1 °F 70.0 °F 96% 30.03 in 10.0 mi Calm Calm - 0.03 in Rain Light Rain
9:53 AM 71.1 °F 70.0 °F 96% 30.01 in 6.0 mi Calm Calm - 0.06 in Rain Rain
10:11 AM 71.1 °F 70.0 °F 96% 30.05 in 5.0 mi Calm Calm - 0.03 in Rain Rain
10:53 AM 71.1 °F 69.1 °F 93% 30.04 in 1.5 mi WSW 3.5 mph - 0.17 in Rain Heavy Rain
11:07 AM 71.1 °F 70.0 °F 96% 30.05 in 1.8 mi SSE 3.5 mph - 0.05 in Rain Heavy Rain
11:14 AM 71.1 °F 70.0 °F 96% 30.05 in 2.5 mi SSE 3.5 mph - 0.08 in Rain Heavy Rain
11:26 AM 71.1 °F 70.0 °F 96% 30.06 in 2.5 mi Calm Calm - 0.12 in Rain Rain
11:45 AM 70.0 °F 69.1 °F 97% 30.05 in 4.0 mi SE 3.5 mph - 0.17 in Rain Rain
11:53 AM 70.0 °F 69.1 °F 97% 30.01 in 6.0 mi ESE 5.8 mph - 0.19 in Rain Rain
12:05 PM 70.0 °F 69.1 °F 97% 30.01 in 10.0 mi Variable 3.5 mph - 0.00 in Rain Light Rain
12:49 PM 69.8 °F 69.8 °F 100% 29.98 in 10.0 mi South 6.9 mph - 0.00 in   Mostly Cloudy
12:53 PM 71.1 °F 69.1 °F 93% 29.96 in 10.0 mi Variable 5.8 mph - 0.00 in Rain Light Rain
1:53 PM 73.9 °F 71.1 °F 91% 29.95 in 10.0 mi North 6.9 mph - 0.01 in   Clear
2:07 PM 73.9 °F 71.1 °F 91% 29.97 in 10.0 mi NNE 8.1 mph - N/A   Scattered Clouds
2:53 PM 75.9 °F 70.0 °F 82% 29.94 in 10.0 mi NE 6.9 mph - N/A   Scattered Clouds
3:04 PM 75.9 °F 70.0 °F 82% 29.96 in 10.0 mi Variable 5.8 mph - N/A   Mostly Cloudy
3:11 PM 77.0 °F 70.0 °F 79% 29.97 in 10.0 mi ENE 5.8 mph - N/A   Scattered Clouds
3:31 PM 75.9 °F 71.1 °F 85% 29.98 in 10.0 mi East 5.8 mph - N/A   Mostly Cloudy
3:53 PM 77.0 °F 70.0 °F 79% 29.95 in 10.0 mi NE 4.6 mph - N/A   Scattered Clouds
4:53 PM 77.0 °F 70.0 °F 79% 29.94 in 10.0 mi Variable 6.9 mph - N/A   Partly Cloudy
5:53 PM 77.0 °F 70.0 °F 79% 29.91 in 10.0 mi Variable 5.8 mph - N/A   Mostly Cloudy
6:53 PM 77.0 °F 71.1 °F 82% 29.91 in 10.0 mi Variable 5.8 mph - N/A   Partly Cloudy
7:53 PM 77.0 °F 71.1 °F 82% 29.93 in 10.0 mi ENE 4.6 mph - N/A   Mostly Cloudy
8:53 PM 73.9 °F 71.1 °F 91% 29.94 in 10.0 mi Calm Calm - N/A   Partly Cloudy
9:53 PM 73.9 °F 71.1 °F 91% 29.95 in 10.0 mi Variable 3.5 mph - N/A   Scattered Clouds
10:53 PM 73.9 °F 71.1 °F 91% 29.95 in 10.0 mi East 3.5 mph - N/A   Partly Cloudy
11:53 PM 73.9 °F 71.1 °F 91% 29.95 in 10.0 mi East 4.6 mph - N/A   Clear